| time (UTC) | temp F | wind direction | speed MPH | gust MPH | rain 1hr in | rain 24hr in | rain mn in | humidity % | barometer mb |
| 20260503035537 | 41 | 286 | 0.0 | 0.0 | 0.00 | 0.00 | 0.01 | 84 | 1003.4 |
| 20260503035052 | 41 | 286 | 0.0 | 0.0 | 0.00 | 0.00 | 0.01 | 86 | 1003.4 |
| 20260503034531 | 41 | 286 | 0.0 | 0.0 | 0.00 | 0.00 | 0.01 | 86 | 1003.4 |
| 20260503034023 | 41 | 286 | 0.0 | 0.0 | 0.00 | 0.00 | 0.01 | 85 | 1003.4 |
| 20260503033524 | 41 | 286 | 0.0 | 0.0 | 0.00 | 0.00 | 0.01 | 86 | 1003.4 |
| 20260503033034 | 41 | 286 | 1.0 | 0.0 | 0.00 | 0.00 | 0.01 | 86 | 1003.4 |
| 20260503032536 | 41 | 286 | 1.0 | 0.0 | 0.00 | 0.00 | 0.01 | 86 | 1003.3 |
| 20260503032022 | 41 | 286 | 0.0 | 0.0 | 0.00 | 0.00 | 0.01 | 86 | 1003.3 |
| 20260503031535 | 41 | 286 | 0.0 | 0.0 | 0.00 | 0.00 | 0.01 | 86 | 1003.3 |
| 20260503031021 | 41 | 286 | 2.0 | 0.0 | 0.00 | 0.00 | 0.01 | 85 | 1003.4 |
| 20260503030525 | 41 | 286 | 3.0 | 0.0 | 0.00 | 0.00 | 0.01 | 86 | 1003.4 |
| 20260503030038 | 41 | 286 | 2.0 | 0.0 | 0.00 | 0.00 | 0.01 | 86 | 1003.4 |
| 20260503025524 | 41 | 286 | 3.0 | 0.0 | 0.00 | 0.00 | 0.01 | 87 | 1003.4 |
| 20260503025030 | 41 | 286 | 4.0 | 0.0 | 0.00 | 0.00 | 0.01 | 88 | 1003.4 |
| 20260503024546 | 41 | 271 | 2.0 | 0.0 | 0.00 | 0.00 | 0.01 | 90 | 1003.4 |
| 20260503024032 | 41 | 313 | 1.0 | 0.0 | 0.00 | 0.00 | 0.01 | 91 | 1003.4 |
| 20260503023538 | 41 | 313 | 1.0 | 0.0 | 0.00 | 0.00 | 0.01 | 91 | 1003.4 |
| 20260503023024 | 41 | 313 | 1.0 | 0.0 | 0.00 | 0.00 | 0.01 | 91 | 1003.4 |
| 20260503022541 | 41 | 313 | 1.0 | 0.0 | 0.00 | 0.00 | 0.01 | 91 | 1003.5 |
| 20260503022029 | 41 | 313 | 1.0 | 0.0 | 0.00 | 0.00 | 0.01 | 91 | 1003.5 |
| 20260503021543 | 41 | 313 | 1.0 | 0.0 | 0.00 | 0.00 | 0.01 | 91 | 1003.5 |
| 20260503021029 | 41 | 313 | 1.0 | 0.0 | 0.00 | 0.00 | 0.01 | 91 | 1003.4 |
| 20260503020537 | 41 | 313 | 2.0 | 0.0 | 0.00 | 0.00 | 0.01 | 91 | 1003.4 |
| 20260503020111 | 42 | 313 | 2.0 | 0.0 | 0.00 | 0.00 | 0.01 | 91 | 1003.4 |
| 20260503015531 | 42 | 313 | 3.0 | 0.0 | 0.00 | 0.00 | 0.01 | 91 | 1003.3 |
| 20260503015049 | 42 | 314 | 2.0 | 0.0 | 0.00 | 0.00 | 0.01 | 91 | 1003.3 |
| 20260503014535 | 42 | 314 | 2.0 | 0.0 | 0.00 | 0.00 | 0.01 | 91 | 1003.3 |
| 20260503014033 | 42 | 314 | 2.0 | 0.0 | 0.00 | 0.00 | 0.01 | 91 | 1003.0 |
| 20260503013521 | 42 | 314 | 2.0 | 0.0 | 0.00 | 0.00 | 0.01 | 91 | 1003.0 |
| 20260503013034 | 42 | 314 | 2.0 | 0.0 | 0.00 | 0.00 | 0.01 | 91 | 1003.0 |
| 20260503012521 | 42 | 314 | 1.0 | 0.0 | 0.00 | 0.00 | 0.01 | 91 | 1003.1 |
| 20260503012030 | 42 | 314 | 1.0 | 0.0 | 0.00 | 0.00 | 0.01 | 91 | 1003.1 |
| 20260503011548 | 42 | 314 | 2.0 | 0.0 | 0.00 | 0.00 | 0.01 | 91 | 1003.1 |
| 20260503011050 | 42 | 314 | 2.0 | 0.0 | 0.00 | 0.00 | 0.01 | 91 | 1003.1 |
| 20260503010544 | 42 | 316 | 2.0 | 0.0 | 0.00 | 0.00 | 0.01 | 90 | 1003.1 |
| 20260503010032 | 42 | 316 | 2.0 | 0.0 | 0.00 | 0.00 | 0.01 | 90 | 1003.2 |
| 20260503005547 | 43 | 314 | 3.0 | 0.0 | 0.00 | 0.00 | 0.01 | 90 | 1003.0 |
| 20260503005020 | 43 | 317 | 3.0 | 0.0 | 0.00 | 0.00 | 0.01 | 90 | 1003.0 |
| 20260503004530 | 43 | 322 | 3.0 | 0.0 | 0.00 | 0.00 | 0.01 | 89 | 1003.0 |
| 20260503004050 | 43 | 316 | 2.0 | 0.0 | 0.00 | 0.00 | 0.00 | 89 | 1003.1 |
| 20260503003534 | 43 | 316 | 3.0 | 0.0 | 0.00 | 0.00 | 0.00 | 88 | 1003.1 |
| 20260503003046 | 43 | 316 | 4.0 | 0.0 | 0.00 | 0.00 | 0.00 | 88 | 1003.1 |
| 20260503002530 | 44 | 292 | 4.0 | 0.0 | 0.00 | 0.00 | 0.00 | 86 | 1003.1 |
| 20260503002032 | 44 | 290 | 4.0 | 0.0 | 0.00 | 0.00 | 0.00 | 85 | 1003.1 |
| 20260503001549 | 44 | 320 | 4.0 | 0.0 | 0.00 | 0.00 | 0.00 | 84 | 1003.1 |
| 20260503001031 | 45 | 302 | 4.0 | 0.0 | 0.00 | 0.00 | 0.00 | 83 | 1002.9 |
| 20260503000544 | 45 | 323 | 5.0 | 0.0 | 0.00 | 0.00 | 0.00 | 82 | 1002.9 |
| 20260503000030 | 45 | 320 | 5.0 | 0.0 | 0.00 | 0.00 | 0.00 | 82 | 1002.9 |
| 20260502235532 | 45 | 323 | 6.0 | 0.0 | 0.00 | 0.00 | 0.00 | 82 | 1002.9 |
| 20260502235047 | 46 | 11 | 6.0 | 0.0 | 0.00 | 0.00 | 0.00 | 80 | 1002.9 |
| 20260502234602 | 46 | 348 | 5.0 | 0.0 | 0.00 | 0.00 | 0.00 | 79 | 1002.9 |
| 20260502234036 | 46 | 305 | 5.0 | 0.0 | 0.00 | 0.00 | 0.00 | 79 | 1002.8 |
| 20260502233526 | 46 | 302 | 5.0 | 0.0 | 0.00 | 0.00 | 0.00 | 78 | 1002.8 |
| 20260502233035 | 46 | 296 | 5.0 | 0.0 | 0.00 | 0.00 | 0.00 | 77 | 1002.8 |
| 20260502232520 | 47 | 288 | 5.0 | 0.0 | 0.00 | 0.00 | 0.00 | 76 | 1002.7 |
| 20260502232032 | 47 | 326 | 5.0 | 0.0 | 0.00 | 0.00 | 0.00 | 75 | 1002.7 |
| 20260502231536 | 47 | 290 | 4.0 | 0.0 | 0.00 | 0.00 | 0.00 | 75 | 1002.7 |
| 20260502231020 | 47 | 264 | 4.0 | 0.0 | 0.00 | 0.00 | 0.00 | 75 | 1002.6 |
| 20260502230527 | 47 | 261 | 4.0 | 0.0 | 0.00 | 0.00 | 0.00 | 74 | 1002.6 |
| 20260502230100 | 47 | 259 | 5.0 | 0.0 | 0.00 | 0.00 | 0.00 | 73 | 1002.6 |
| 20260502225523 | 48 | 272 | 5.0 | 0.0 | 0.00 | 0.00 | 0.00 | 71 | 1002.5 |
| 20260502225026 | 48 | 274 | 4.0 | 0.0 | 0.00 | 0.00 | 0.00 | 70 | 1002.5 |
| 20260502224540 | 48 | 275 | 3.0 | 0.0 | 0.00 | 0.00 | 0.00 | 69 | 1002.5 |
| 20260502224023 | 48 | 258 | 2.0 | 0.0 | 0.00 | 0.00 | 0.00 | 69 | 1002.4 |
| 20260502223529 | 48 | 258 | 3.0 | 0.0 | 0.00 | 0.00 | 0.00 | 68 | 1002.4 |
| 20260502223028 | 48 | 258 | 3.0 | 0.0 | 0.00 | 0.00 | 0.00 | 68 | 1002.4 |
| 20260502222534 | 48 | 254 | 2.0 | 0.0 | 0.00 | 0.00 | 0.00 | 68 | 1002.3 |
| 20260502222019 | 48 | 254 | 2.0 | 0.0 | 0.00 | 0.00 | 0.00 | 68 | 1002.3 |
| 20260502221555 | 48 | 220 | 1.0 | 0.0 | 0.00 | 0.00 | 0.00 | 68 | 1002.3 |
| 20260502221022 | 48 | 216 | 1.0 | 0.0 | 0.00 | 0.00 | 0.00 | 68 | 1002.2 |
| 20260502220527 | 49 | 216 | 1.0 | 0.0 | 0.00 | 0.00 | 0.00 | 67 | 1002.2 |
| 20260502220027 | 49 | 214 | 1.0 | 0.0 | 0.00 | 0.00 | 0.00 | 67 | 1002.2 |
| 20260502215529 | 49 | 214 | 1.0 | 0.0 | 0.00 | 0.00 | 0.00 | 67 | 1002.3 |
| 20260502215049 | 49 | 214 | 1.0 | 0.0 | 0.00 | 0.00 | 0.00 | 67 | 1002.3 |
| 20260502214522 | 49 | 200 | 1.0 | 0.0 | 0.00 | 0.00 | 0.00 | 67 | 1002.3 |
| 20260502214026 | 49 | 200 | 1.0 | 0.0 | 0.00 | 0.00 | 0.00 | 66 | 1002.0 |
| 20260502213607 | 49 | 200 | 0.0 | 0.0 | 0.00 | 0.00 | 0.00 | 66 | 1002.0 |
| 20260502213037 | 49 | 200 | 0.0 | 0.0 | 0.00 | 0.00 | 0.00 | 65 | 1002.0 |
| 20260502212524 | 49 | 200 | 0.0 | 0.0 | 0.00 | 0.00 | 0.00 | 65 | 1002.1 |
| 20260502212032 | 50 | 200 | 0.0 | 0.0 | 0.00 | 0.00 | 0.00 | 65 | 1002.1 |
| 20260502211531 | 50 | 200 | 1.0 | 0.0 | 0.00 | 0.00 | 0.00 | 64 | 1002.1 |
| 20260502211037 | 50 | 200 | 0.0 | 0.0 | 0.00 | 0.00 | 0.00 | 65 | 1002.0 |
| 20260502210546 | 50 | 200 | 0.0 | 0.0 | 0.00 | 0.00 | 0.00 | 64 | 1002.0 |
| 20260502210027 | 50 | 200 | 0.0 | 0.0 | 0.00 | 0.00 | 0.00 | 64 | 1002.0 |
| 20260502205537 | 50 | 200 | 0.0 | 0.0 | 0.00 | 0.00 | 0.00 | 64 | 1001.9 |
| 20260502205039 | 50 | 200 | 0.0 | 0.0 | 0.00 | 0.00 | 0.00 | 63 | 1001.9 |
| 20260502204529 | 50 | 200 | 0.0 | 0.0 | 0.00 | 0.00 | 0.00 | 63 | 1001.9 |
| 20260502204036 | 50 | 200 | 0.0 | 0.0 | 0.00 | 0.00 | 0.00 | 63 | 1001.9 |
| 20260502203524 | 50 | 200 | 0.0 | 0.0 | 0.00 | 0.00 | 0.00 | 63 | 1001.9 |
| 20260502203036 | 50 | 200 | 0.0 | 0.0 | 0.00 | 0.00 | 0.00 | 62 | 1001.9 |
| 20260502202521 | 51 | 200 | 0.0 | 0.0 | 0.00 | 0.00 | 0.00 | 63 | 1001.9 |
| 20260502202038 | 51 | 200 | 0.0 | 0.0 | 0.00 | 0.00 | 0.00 | 62 | 1001.9 |
| 20260502201525 | 51 | 200 | 0.0 | 0.0 | 0.00 | 0.00 | 0.00 | 61 | 1001.9 |
| 20260502201036 | 51 | 200 | 0.0 | 0.0 | 0.00 | 0.00 | 0.00 | 62 | 1001.9 |
| 20260502200544 | 51 | 200 | 0.0 | 0.0 | 0.00 | 0.00 | 0.00 | 61 | 1001.9 |
| 20260502200040 | 51 | 200 | 0.0 | 0.0 | 0.00 | 0.00 | 0.00 | 63 | 1001.9 |
| 20260502195522 | 51 | 200 | 0.0 | 0.0 | 0.00 | 0.00 | 0.00 | 62 | 1001.9 |
| 20260502195028 | 51 | 200 | 0.0 | 0.0 | 0.00 | 0.00 | 0.00 | 62 | 1001.9 |
| 20260502194543 | 51 | 200 | 0.0 | 0.0 | 0.00 | 0.00 | 0.00 | 62 | 1001.9 |
| 20260502194104 | 51 | 200 | 0.0 | 0.0 | 0.00 | 0.00 | 0.00 | 62 | 1001.9 |
| 20260502193530 | 51 | 200 | 0.0 | 0.0 | 0.00 | 0.00 | 0.00 | 62 | 1001.9 |
| 20260502193051 | 51 | 200 | 0.0 | 0.0 | 0.00 | 0.00 | 0.00 | 62 | 1001.9 |
| 20260502192537 | 51 | 200 | 0.0 | 0.0 | 0.00 | 0.00 | 0.00 | 62 | 1002.1 |
| 20260502192026 | 51 | 200 | 0.0 | 0.0 | 0.00 | 0.00 | 0.00 | 62 | 1002.1 |
| 20260502191535 | 52 | 200 | 0.0 | 0.0 | 0.00 | 0.00 | 0.00 | 62 | 1002.1 |
| 20260502191023 | 52 | 200 | 0.0 | 0.0 | 0.00 | 0.00 | 0.00 | 62 | 1002.0 |
| 20260502190530 | 52 | 200 | 0.0 | 0.0 | 0.00 | 0.00 | 0.00 | 62 | 1002.0 |
| 20260502190050 | 52 | 200 | 0.0 | 0.0 | 0.00 | 0.00 | 0.00 | 61 | 1002.0 |
| 20260502185535 | 52 | 200 | 0.0 | 0.0 | 0.00 | 0.00 | 0.00 | 62 | 1002.0 |
| 20260502185022 | 52 | 200 | 0.0 | 0.0 | 0.00 | 0.00 | 0.00 | 61 | 1002.0 |
| 20260502184531 | 53 | 200 | 0.0 | 0.0 | 0.00 | 0.00 | 0.00 | 62 | 1002.0 |
| 20260502184048 | 53 | 200 | 0.0 | 0.0 | 0.00 | 0.00 | 0.00 | 62 | 1002.0 |
| 20260502183532 | 53 | 200 | 0.0 | 0.0 | 0.00 | 0.00 | 0.00 | 61 | 1002.0 |
| 20260502183039 | 53 | 199 | 1.0 | 0.0 | 0.00 | 0.00 | 0.00 | 62 | 1002.0 |
| 20260502182530 | 53 | 199 | 1.0 | 0.0 | 0.00 | 0.00 | 0.00 | 60 | 1002.1 |
| 20260502182036 | 54 | 199 | 1.0 | 0.0 | 0.00 | 0.00 | 0.00 | 61 | 1002.1 |
| 20260502181530 | 54 | 199 | 1.0 | 0.0 | 0.00 | 0.00 | 0.00 | 60 | 1002.1 |
| 20260502181033 | 54 | 199 | 1.0 | 0.0 | 0.00 | 0.00 | 0.00 | 60 | 1002.0 |
| 20260502180538 | 54 | 199 | 1.0 | 0.0 | 0.00 | 0.00 | 0.00 | 59 | 1002.0 |
| 20260502164030 | 57 | 226 | 0.0 | 0.0 | 0.00 | 0.00 | 0.00 | 48 | 1002.0 |
| 20260502163539 | 57 | 226 | 1.0 | 0.0 | 0.00 | 0.00 | 0.00 | 48 | 1002.0 |
| 20260502163025 | 58 | 226 | 1.0 | 0.0 | 0.00 | 0.00 | 0.00 | 48 | 1002.0 |
| 20260502162530 | 58 | 223 | 1.0 | 0.0 | 0.00 | 0.00 | 0.00 | 47 | 1002.2 |
| 20260502162042 | 58 | 223 | 1.0 | 0.0 | 0.00 | 0.00 | 0.00 | 45 | 1002.2 |
| 20260502161621 | 58 | 0.0 | 0.0 | 0.00 | 0.00 | 0.00 | 48 | 1002.2 | |
| 20260502161042 | 0 | 0.0 | 0.0 | 0.00 | 0.00 | 0.00 | 1002.2 | ||
| 20260502160531 | 0 | 0.0 | 0.0 | 0.00 | 0.00 | 0.00 | 1002.2 | ||
| 20260502152021 | 0 | 0.0 | 0.0 | 0.00 | 0.00 | 0.00 | 1002.1 | ||
| 20260502151527 | 0 | 0.0 | 0.0 | 0.00 | 0.00 | 0.00 | 1002.1 | ||
| 20260502151042 | 0 | 0.0 | 0.0 | 0.00 | 0.00 | 0.00 | 1002.2 | ||
| 20260502150533 | 0 | 0.0 | 0.0 | 0.00 | 0.00 | 0.00 | 1002.2 | ||
| 20260502130525 | 65 | 293 | 4.0 | 0.0 | 0.00 | 0.00 | 0.00 | 39 | 1001.8 |
| 20260502123523 | 65 | 279 | 4.0 | 0.0 | 0.00 | 0.00 | 0.00 | 37 | 1001.8 |
| 20260502123027 | 65 | 266 | 4.0 | 0.0 | 0.00 | 0.00 | 0.00 | 38 | 1001.8 |
| 20260502122524 | 65 | 268 | 5.0 | 0.0 | 0.00 | 0.00 | 0.00 | 38 | 1001.8 |
| 20260502122036 | 66 | 276 | 4.0 | 0.0 | 0.00 | 0.00 | 0.00 | 37 | 1001.8 |
| 20260502121540 | 66 | 272 | 4.0 | 0.0 | 0.00 | 0.00 | 0.00 | 38 | 1001.8 |
| 20260502121031 | 66 | 266 | 5.0 | 0.0 | 0.00 | 0.00 | 0.00 | 38 | 1001.7 |
| 20260502120529 | 66 | 254 | 5.0 | 0.0 | 0.00 | 0.00 | 0.00 | 37 | 1001.7 |
| 20260502115536 | 67 | 312 | 5.0 | 0.0 | 0.00 | 0.00 | 0.00 | 38 | 1001.7 |
| 20260502115039 | 68 | 216 | 4.0 | 0.0 | 0.00 | 0.00 | 0.00 | 38 | 1001.7 |
| 20260502114528 | 67 | 272 | 4.0 | 0.0 | 0.00 | 0.00 | 0.00 | 37 | 1001.7 |
| 20260502114037 | 67 | 242 | 3.0 | 0.0 | 0.00 | 0.00 | 0.00 | 39 | 1001.7 |
| 20260502113536 | 67 | 182 | 5.0 | 0.0 | 0.00 | 0.00 | 0.00 | 39 | 1001.7 |
| 20260502113022 | 67 | 300 | 5.0 | 0.0 | 0.00 | 0.00 | 0.00 | 41 | 1001.7 |
| 20260502112538 | 68 | 282 | 3.0 | 0.0 | 0.00 | 0.00 | 0.00 | 41 | 1001.8 |
| 20260502112027 | 68 | 309 | 4.0 | 0.0 | 0.00 | 0.00 | 0.00 | 40 | 1001.8 |
| 20260502111543 | 68 | 234 | 4.0 | 0.0 | 0.00 | 0.00 | 0.00 | 40 | 1001.8 |
| 20260502111027 | 67 | 217 | 5.0 | 0.0 | 0.00 | 0.00 | 0.00 | 39 | 1001.8 |
| 20260502110536 | 67 | 240 | 5.0 | 0.0 | 0.00 | 0.00 | 0.00 | 39 | 1001.8 |
| 20260502110032 | 67 | 258 | 6.0 | 0.0 | 0.00 | 0.00 | 0.00 | 38 | 1001.9 |
| 20260502105537 | 67 | 296 | 6.0 | 0.0 | 0.00 | 0.00 | 0.00 | 37 | 1001.8 |
| 20260502105025 | 67 | 303 | 5.0 | 0.0 | 0.00 | 0.00 | 0.00 | 39 | 1001.8 |
| 20260502104544 | 67 | 245 | 5.0 | 0.0 | 0.00 | 0.00 | 0.00 | 40 | 1001.8 |
| 20260502104055 | 66 | 257 | 4.0 | 0.0 | 0.00 | 0.00 | 0.00 | 41 | 1001.8 |
| 20260502103524 | 66 | 172 | 4.0 | 0.0 | 0.00 | 0.00 | 0.00 | 45 | 1001.8 |
| 20260502103046 | 66 | 258 | 3.0 | 0.0 | 0.00 | 0.00 | 0.00 | 43 | 1001.8 |
| 20260502102535 | 66 | 272 | 3.0 | 0.0 | 0.00 | 0.00 | 0.00 | 41 | 1001.8 |
| 20260502102024 | 66 | 230 | 4.0 | 0.0 | 0.00 | 0.00 | 0.00 | 43 | 1001.8 |
| 20260502101543 | 65 | 278 | 4.0 | 0.0 | 0.00 | 0.00 | 0.00 | 43 | 1001.8 |
| 20260502101028 | 65 | 255 | 5.0 | 0.0 | 0.00 | 0.00 | 0.00 | 44 | 1001.8 |
| 20260502100533 | 65 | 279 | 4.0 | 0.0 | 0.00 | 0.00 | 0.00 | 43 | 1001.8 |
| 20260502091532 | 65 | 216 | 5.0 | 0.0 | 0.00 | 0.00 | 0.00 | 47 | 1001.9 |
| 20260502091032 | 65 | 309 | 4.0 | 0.0 | 0.00 | 0.00 | 0.00 | 44 | 1001.7 |
| 20260502090520 | 66 | 265 | 3.0 | 0.0 | 0.00 | 0.00 | 0.00 | 41 | 1001.7 |
| 20260502071525 | 61 | 196 | 3.0 | 0.0 | 0.00 | 0.00 | 0.00 | 53 | 1001.9 |
| 20260502071034 | 61 | 187 | 3.0 | 0.0 | 0.00 | 0.00 | 0.00 | 51 | 1001.9 |
| 20260502070546 | 61 | 186 | 2.0 | 0.0 | 0.00 | 0.00 | 0.00 | 53 | 1001.9 |
| 20260502070057 | 60 | 183 | 2.0 | 0.0 | 0.00 | 0.00 | 0.00 | 54 | 1001.9 |
| 20260502065520 | 59 | 203 | 2.0 | 0.0 | 0.00 | 0.00 | 0.00 | 55 | 1002.1 |
| 20260502065050 | 59 | 170 | 1.0 | 0.0 | 0.00 | 0.00 | 0.00 | 56 | 1002.1 |
| 20260502064539 | 59 | 170 | 2.0 | 0.0 | 0.00 | 0.00 | 0.00 | 55 | 1002.1 |
| 20260502064027 | 59 | 170 | 3.0 | 0.0 | 0.00 | 0.00 | 0.00 | 55 | 1002.2 |
| 20260502063528 | 58 | 176 | 3.0 | 0.0 | 0.00 | 0.00 | 0.00 | 59 | 1002.2 |
| 20260502063033 | 57 | 168 | 2.0 | 0.0 | 0.00 | 0.00 | 0.00 | 58 | 1002.2 |
| 20260502062536 | 57 | 166 | 2.0 | 0.0 | 0.00 | 0.00 | 0.00 | 59 | 1002.4 |
| 20260502062032 | 56 | 161 | 2.0 | 0.0 | 0.00 | 0.00 | 0.00 | 63 | 1002.4 |
| 20260502061539 | 55 | 159 | 2.0 | 0.0 | 0.00 | 0.00 | 0.00 | 63 | 1002.4 |
| 20260502061022 | 54 | 170 | 1.0 | 0.0 | 0.00 | 0.00 | 0.00 | 64 | 1002.4 |
| 20260502060532 | 53 | 170 | 2.0 | 0.0 | 0.00 | 0.00 | 0.00 | 65 | 1002.4 |
| 20260502060048 | 53 | 175 | 2.0 | 0.0 | 0.00 | 0.00 | 0.00 | 64 | 1002.4 |
| 20260502055536 | 52 | 175 | 1.0 | 0.0 | 0.00 | 0.00 | 0.00 | 65 | 1002.4 |
| 20260502055030 | 52 | 175 | 0.0 | 0.0 | 0.00 | 0.00 | 0.00 | 65 | 1002.4 |
| 20260502054522 | 52 | 175 | 0.0 | 0.0 | 0.00 | 0.00 | 0.00 | 65 | 1002.4 |
| 20260502054025 | 52 | 175 | 0.0 | 0.0 | 0.00 | 0.00 | 0.00 | 66 | 1002.4 |
| 20260502053535 | 52 | 175 | 1.0 | 0.0 | 0.00 | 0.00 | 0.00 | 66 | 1002.4 |
| 20260502053026 | 52 | 178 | 2.0 | 0.0 | 0.00 | 0.00 | 0.00 | 66 | 1002.4 |
| 20260502052543 | 51 | 169 | 4.0 | 0.0 | 0.00 | 0.00 | 0.00 | 66 | 1002.1 |
| 20260502052049 | 51 | 166 | 6.0 | 0.0 | 0.00 | 0.00 | 0.00 | 66 | 1002.1 |
| 20260502051532 | 51 | 127 | 6.0 | 0.0 | 0.00 | 0.00 | 0.00 | 65 | 1002.1 |
| 20260502051021 | 52 | 154 | 7.0 | 0.0 | 0.00 | 0.00 | 0.00 | 66 | 1002.3 |
| 20260502050536 | 51 | 151 | 8.0 | 0.0 | 0.00 | 0.00 | 0.00 | 67 | 1002.3 |
| 20260502050024 | 46 | 152 | 6.0 | 0.0 | 0.00 | 0.00 | 0.00 | 75 | 1002.3 |
| 20260502045538 | 46 | 0.0 | 0.0 | 0.00 | 0.00 | 0.00 | 75 | 1002.4 | |
| 20260502045033 | 46 | 0.0 | 0.0 | 0.00 | 0.00 | 0.00 | 75 | 1002.4 | |
| 20260502044543 | 46 | 0.0 | 0.0 | 0.00 | 0.00 | 0.00 | 75 | 1002.4 | |
| 20260502044037 | 46 | 0.0 | 0.0 | 0.00 | 0.00 | 0.00 | 75 | 1002.9 | |
| 20260502043555 | 46 | 0.0 | 0.0 | 0.00 | 0.00 | 0.00 | 75 | 1002.9 | |
| 20260502043030 | 46 | 146 | 4.0 | 0.0 | 0.00 | 0.00 | 0.00 | 75 | 1002.9 |
| 20260502042527 | 46 | 134 | 3.0 | 0.0 | 0.00 | 0.00 | 0.00 | 75 | 1003.0 |
| 20260502042044 | 45 | 186 | 3.0 | 0.0 | 0.00 | 0.00 | 0.00 | 76 | 1003.0 |
| 20260502041528 | 44 | 114 | 3.0 | 0.0 | 0.00 | 0.00 | 0.00 | 75 | 1003.0 |
| 20260502041035 | 43 | 118 | 3.0 | 0.0 | 0.00 | 0.00 | 0.00 | 76 | 1003.4 |
| 20260502040523 | 43 | 125 | 3.0 | 0.0 | 0.00 | 0.00 | 0.00 | 77 | 1003.4 |